This is the latest recevied weather packets stored in our database for station/object N1ORT. If no packets are shown the sender has not sent any weather packets the latest 10 day(s).
| Time | Temp. | Humidity | Pressure | Rain* | Wind** | Luminosity | Snow |
|---|---|---|---|---|---|---|---|
| 1787784129 | 22.78° C | 78% | 1015.2 hPa | 0 mm | - | 19 W/m² | - |
| 1787783825 | 23.33° C | 78% | 1015.3 hPa | 0 mm | - | 21 W/m² | - |
| 1787783520 | 23.33° C | 77% | 1015.2 hPa | 0 mm | - | 22 W/m² | - |
| 1787783215 | 23.33° C | 76% | 1015.3 hPa | 0 mm | - | 25 W/m² | - |
| 1787782915 | 23.89° C | 76% | 1015.3 hPa | 0 mm | - | 27 W/m² | - |
| 1787782608 | 23.89° C | 76% | 1015.2 hPa | 0 mm | - | 32 W/m² | - |
| 1787782304 | 23.89° C | 77% | 1015.1 hPa | 0 mm | - | 29 W/m² | - |
| 1787782000 | 23.33° C | 75% | 1015.4 hPa | 0 mm | - | 30 W/m² | - |
| 1787781695 | 23.89° C | 75% | 1015.3 hPa | 0 mm | - | 31 W/m² | - |
| 1787781393 | 23.89° C | 75% | 1015.2 hPa | 0 mm | - | 36 W/m² | - |
| 1787781091 | 23.89° C | 74% | 1015.4 hPa | 0 mm | - | 38 W/m² | - |
| 1787780785 | 23.89° C | 73% | 1015.3 hPa | 0 mm | - | 46 W/m² | - |
| 1787780485 | 24.44° C | 72% | 1015.2 hPa | 0 mm | - | 41 W/m² | - |
| 1787780181 | 24.44° C | 72% | 1015.3 hPa | 0 mm | - | 45 W/m² | - |
| 1787779876 | 25° C | 67% | 1015.2 hPa | 0 mm | - | 43 W/m² | - |
| 1787779576 | 25° C | 65% | 1015.5 hPa | 0 mm | - | 55 W/m² | - |
| 1787779270 | 25.56° C | 64% | 1015.4 hPa | 0 mm | - | 69 W/m² | - |
| 1787778965 | 26.67° C | 59% | 1015.4 hPa | 0 mm | - | 57 W/m² | - |
| 1787778660 | 26.67° C | 60% | 1015 hPa | 0 mm | - | 75 W/m² | - |
| 1787778355 | 27.22° C | 57% | 1015.2 hPa | 0 mm | - | 182 W/m² | - |
| 1787778046 | 26.67° C | 59% | 1015.3 hPa | 0 mm | - | 62 W/m² | - |
| 1787777739 | 26.11° C | 57% | 1015.3 hPa | 0 mm | - | 60 W/m² | - |
| 1787777437 | 26.11° C | 64% | 1015.3 hPa | 0 mm | - | 57 W/m² | - |
| 1787777136 | 26.67° C | 57% | 1015.3 hPa | 0 mm | - | 55 W/m² | - |
| 1787776835 | 26.67° C | 54% | 1015.2 hPa | 0 mm | - | 86 W/m² | - |
* Rain latest hour (hover to see other rain measurements)
** Current wind speed in m/s (hover to see current wind gust speed)